This is the latest recevied weather packets stored in our database for station/object GW7110. If no packets are shown the sender has not sent any weather packets the latest 10 day(s).
| Time | Temp. | Humidity | Pressure | Rain* | Wind** | Luminosity | Snow |
|---|---|---|---|---|---|---|---|
| 1777536540 | 14.44° C | 94% | 29.9 hPa | 4.57 mm | - | - | - |
| 1777534442 | 14.44° C | 94% | 29.9 hPa | 5.08 mm | - | - | - |
| 1777528440 | 15° C | 89% | 30 hPa | 8.89 mm | - | - | - |
| 1777527543 | 16.11° C | 86% | 30 hPa | 4.83 mm | - | - | - |
| 1777527242 | 16.67° C | 84% | 29.9 hPa | 5.59 mm | - | - | - |
| 1777526639 | 17.78° C | 75% | 29.9 hPa | 0.25 mm | - | - | - |
| 1777526342 | 17.78° C | 74% | 29.9 hPa | 0 mm | - | - | - |
| 1777526039 | 17.78° C | 75% | 29.9 hPa | 0 mm | - | - | - |
| 1777525739 | 17.78° C | 76% | 29.9 hPa | 0 mm | - | - | - |
| 1777525139 | 17.78° C | 76% | 29.9 hPa | 0 mm | - | - | - |
| 1777511640 | 20.56° C | 77% | 29.9 hPa | 0 mm | - | - | - |
| 1777500538 | 25° C | 69% | 29.9 hPa | 0 mm | - | 101 W/m² | - |
| 1777500239 | 25° C | 68% | 29.9 hPa | 0 mm | - | 103 W/m² | - |
| 1777499039 | 25.56° C | 66% | 29.9 hPa | 0 mm | - | 119 W/m² | - |
| 1777498438 | 25.56° C | 65% | 29.9 hPa | 0 mm | - | 163 W/m² | - |
| 1777498139 | 26.11° C | 65% | 29.9 hPa | 0 mm | - | 185 W/m² | - |
| 1777497841 | 26.11° C | 64% | 29.9 hPa | 0 mm | - | 174 W/m² | - |
| 1777496939 | 27.22° C | 62% | 29.9 hPa | 0 mm | - | 219 W/m² | - |
| 1777496639 | 27.22° C | 63% | 29.9 hPa | 0 mm | - | 380 W/m² | - |
| 1777495743 | 26.67° C | 65% | 29.9 hPa | 0 mm | - | 325 W/m² | - |
| 1777495138 | 26.11° C | 65% | 29.9 hPa | 0 mm | - | 371 W/m² | - |
| 1777494839 | 26.11° C | 66% | 29.9 hPa | 0 mm | - | 280 W/m² | - |
| 1777494240 | 25.56° C | 67% | 29.9 hPa | 0 mm | - | 126 W/m² | - |
| 1777493939 | 26.11° C | 66% | 29.9 hPa | 0 mm | - | 128 W/m² | - |
| 1777493639 | 26.11° C | 67% | 29.9 hPa | 0 mm | - | 69 W/m² | - |
* Rain latest hour (hover to see other rain measurements)
** Current wind speed in m/s (hover to see current wind gust speed)